[[{"header":{"parameterUnit":"m.s-1","parameterCategory":1,"la1":30.2991,"la2":30.254,"lo1":-89.0895,"lo2":-89.0444,"dy":0.0017,"dx":0.0017,"nx":28,"ny":28,"refTime":"2024-05-08T21:00:00:Z","depth":0,"parameterNumber":2,"parameterNumberName":"U-component_of_WINDS"},"data":[0,0,0,0,0,0,0,0,0,0,0,0,0,0,0,0,0,0,0,0,0,0,0,0,0,0,0,0,0,0,0,0,0,0,0,0,0,0,0,0,0,0,0,0,0,0,0,0,0,0,0,0,0,0,0,0,0,0,-0.0538,-0.0538,0,-0.0542,-0.0542,-0.0542,-0.0558,-0.0559,-0.0559,-0.056,-0.0563,-0.0563,-0.0562,0,0,0,0,0,0,0,0,0,0,0,0,0,-0.0544,-0.0544,-0.0538,-0.0538,-0.0538,-0.0542,-0.0542,-0.0542,-0.0558,-0.0559,-0.0559,-0.056,-0.0563,-0.0563,-0.0562,0,0,0,0,0,0,0,0,0,0,0,0,0,-0.0544,-0.0544,-0.0538,-0.0547,-0.0547,-0.0542,-0.0542,-0.0542,-0.0558,-0.0559,-0.0559,-0.056,-0.0563,-0.0563,-0.0562,-0.0548,0,0,-0.0561,-0.0561,0,0,0,0,0,0,0,0,-0.0544,-0.0544,-0.0545,-0.0546,-0.0547,-0.055,-0.0545,-0.0544,-0.0558,-0.0554,-0.056,-0.056,-0.0558,-0.0558,-0.0558,-0.0549,-0.0549,-0.0561,-0.0561,-0.0561,-0.0561,0,0,0,0,0,0,0,-0.0544,-0.0544,-0.0539,-0.0545,-0.0546,-0.055,-0.0551,-0.0545,-0.0553,-0.0554,-0.0556,-0.0556,-0.0559,-0.0558,-0.0558,-0.0549,-0.0561,-0.0561,-0.056,-0.056,-0.053,-0.0529,0,0,0,0,0,0,-0.0543,-0.0543,-0.0539,-0.0539,-0.0547,-0.055,-0.055,-0.0549,-0.0553,-0.0554,-0.0556,-0.0557,-0.0558,-0.0558,-0.0558,-0.0543,-0.0561,-0.056,-0.056,-0.053,-0.053,-0.0529,0,0,0,0,0,0,-0.0543,-0.0542,-0.0539,-0.0542,-0.0542,-0.0549,-0.0547,-0.0548,-0.0548,-0.0554,-0.0555,-0.0553,-0.0559,-0.0559,-0.0551,-0.0543,-0.056,-0.056,-0.0531,-0.053,-0.0529,-0.0511,0,0,0,0,0,0,-0.0543,-0.0542,-0.0537,-0.0542,-0.0542,-0.0532,-0.0546,-0.0548,-0.0547,-0.0549,-0.0552,-0.0553,-0.0559,-0.0552,-0.0551,-0.0543,-0.0559,-0.0532,-0.0531,-0.053,-0.0513,-0.051,-0.0508,0,0,0,0,0,-0.0543,-0.0531,-0.0536,-0.0536,-0.0535,-0.0531,-0.0531,-0.0539,-0.0546,-0.0541,-0.0545,-0.0553,-0.0544,-0.0551,-0.055,-0.0542,-0.0532,-0.0531,-0.053,-0.0514,-0.0511,-0.0508,0,0,0,0,0,0,-0.0525,-0.0532,-0.0538,-0.0527,-0.0529,-0.0534,-0.0528,-0.0535,-0.0534,-0.0535,-0.0545,-0.0545,-0.0536,-0.0538,-0.0545,-0.0529,-0.054,-0.0538,-0.0528,-0.0525,-0.0522,-0.0522,-0.0559,0,0,0,0,0,-0.0519,-0.0516,-0.0522,-0.0512,-0.0513,-0.052,-0.0519,-0.0525,-0.0526,-0.0527,-0.053,-0.0531,-0.0529,-0.0527,-0.0525,-0.0513,-0.0515,-0.0508,-0.0505,-0.0503,-0.0501,-0.0496,-0.0493,-0.0525,-0.0525,-0.0525,0,0,-0.0508,-0.0512,-0.0509,-0.0509,-0.0511,-0.0507,-0.0521,-0.0516,-0.0513,-0.0526,-0.0519,-0.0522,-0.0524,-0.0514,-0.051,-0.0516,-0.0493,-0.0501,-0.05,-0.0499,-0.0494,-0.0491,-0.0489,-0.0524,-0.0524,-0.0524,0,0,-0.0486,-0.0489,-0.0481,-0.0483,-0.0486,-0.0491,-0.0489,-0.0494,-0.0496,-0.049,-0.05,-0.0497,-0.0492,-0.0493,-0.0493,-0.0473,-0.0481,-0.0472,-0.0459,-0.0454,-0.0451,-0.0449,-0.0442,-0.044,-0.0471,-0.0471,-0.0471,0,-0.0472,-0.0467,-0.0476,-0.0471,-0.0471,-0.0483,-0.0476,-0.0477,-0.0479,-0.0478,-0.0484,-0.048,-0.0482,-0.0473,-0.0468,-0.0468,-0.0466,-0.0472,-0.0451,-0.0449,-0.0447,-0.044,-0.0438,-0.047,-0.047,-0.047,-0.047,0,-0.045,-0.0446,-0.044,-0.0442,-0.0441,-0.0434,-0.0443,-0.0441,-0.0447,-0.0452,-0.0445,-0.0448,-0.0448,-0.0446,-0.0452,-0.0438,-0.0442,-0.0449,-0.046,-0.0443,-0.0437,-0.0434,-0.0468,-0.0469,-0.0469,-0.0469,0,0,-0.0415,-0.0424,-0.0421,-0.0422,-0.0427,-0.0424,-0.0419,-0.0419,-0.0417,-0.0418,-0.0414,-0.041,-0.0418,-0.0418,-0.0424,-0.0419,-0.0404,-0.0428,-0.0428,-0.0423,-0.039,-0.0384,-0.0381,-0.0409,-0.0409,-0.0408,-0.039,0,-0.0395,-0.0386,-0.0394,-0.0384,-0.0381,-0.0393,-0.0389,-0.0391,-0.0395,-0.0393,-0.0398,-0.0396,-0.0406,-0.0406,-0.0402,-0.0406,-0.0397,-0.0408,-0.0405,-0.0405,-0.0404,-0.0378,-0.0371,-0.0354,-0.0387,-0.0387,-0.0387,0,-0.0369,-0.037,-0.0359,-0.0365,-0.0365,-0.036,-0.0361,-0.0359,-0.0362,-0.0366,-0.0367,-0.0374,-0.037,-0.0381,-0.0374,-0.0382,-0.0381,-0.0383,-0.0383,-0.0383,-0.0394,-0.0377,-0.0348,-0.0346,-0.0383,-0.0383,-0.0384,0,-0.0346,-0.0344,-0.0338,-0.0338,-0.0345,-0.0342,-0.0345,-0.0349,-0.0348,-0.0349,-0.0349,-0.0349,-0.0349,-0.0349,-0.0357,-0.0364,-0.035,-0.0361,-0.0353,-0.0353,-0.0349,-0.0349,-0.032,-0.0349,-0.0349,-0.0349,-0.0349,0,-0.0322,-0.0315,-0.0327,-0.0323,-0.0316,-0.0326,-0.0319,-0.0323,-0.0326,-0.0323,-0.0334,-0.0331,-0.0342,-0.034,-0.0346,-0.034,-0.034,-0.0343,-0.0344,-0.0342,-0.0341,-0.0341,-0.0343,-0.0348,-0.0348,-0.0349,-0.0349,0,-0.0294,-0.0302,-0.0296,-0.0303,-0.0305,-0.0299,-0.0306,-0.0303,-0.0308,-0.0304,-0.0304,-0.0313,-0.0311,-0.0319,-0.0319,-0.0323,-0.0315,-0.0318,-0.0313,-0.0315,-0.0306,-0.0307,-0.0275,-0.0272,-0.0303,-0.0303,-0.0302,0,-0.0278,-0.0273,-0.028,-0.0279,-0.0282,-0.028,-0.028,-0.029,-0.0289,-0.0293,-0.029,-0.0289,-0.0289,-0.0287,-0.0293,-0.0293,-0.0297,-0.0286,-0.0297,-0.0295,-0.0297,-0.0297,-0.0297,-0.0284,-0.0283,-0.0283,-0.0283,0,-0.0249,-0.0254,-0.0253,-0.0255,-0.0254,-0.0256,-0.0258,-0.0256,-0.0267,-0.0266,-0.0265,-0.0265,-0.0266,-0.0265,-0.0267,-0.027,-0.0278,-0.0279,-0.0277,-0.0275,-0.0272,-0.0274,-0.0307,-0.028,-0.028,-0.028,-0.0281,-0.0281,-0.0227,-0.0224,-0.0228,-0.0228,-0.0231,-0.0232,-0.023,-0.0236,-0.0235,-0.0236,-0.0242,-0.024,-0.0244,-0.0248,-0.025,-0.0249,-0.0254,-0.0251,-0.025,-0.0249,-0.0248,-0.0272,-0.0249,-0.0249,-0.0249,-0.0249,-0.0249,0,-0.0199,-0.0203,-0.0202,-0.0205,-0.0205,-0.0213,-0.0216,-0.0215,-0.0214,-0.0217,-0.0217,-0.0216,-0.0216,-0.0223,-0.0224,-0.0221,-0.0225,-0.0221,-0.0222,-0.0222,-0.0243,-0.0245,-0.0218,-0.0218,-0.0218,-0.0218,-0.0218,-0.0218,-0.0185,-0.0179,-0.0184,-0.0181,-0.0185,-0.0183,-0.0184,-0.0186,-0.0189,-0.0188,-0.0188,-0.0192,-0.0197,-0.0198,-0.0199,-0.0201,-0.0201,-0.0195,-0.0198,-0.0218,-0.0221,-0.0223,-0.0225,-0.0195,-0.0195,-0.0178,-0.0178,-0.0178]},{"header":{"parameterUnit":"m.s-1","parameterCategory":1,"la1":30.2991,"la2":30.254,"lo1":-89.0895,"lo2":-89.0444,"dy":0.0017,"dx":0.0017,"nx":28,"ny":28,"refTime":"2024-05-08T21:00:00:Z","depth":0,"parameterNumber":3,"parameterNumberName":"V-component_of_WINDS"},"data":[0,0,0,0,0,0,0,0,0,0,0,0,0,0,0,0,0,0,0,0,0,0,0,0,0,0,0,0,0,0,0,0,0,0,0,0,0,0,0,0,0,0,0,0,0,0,0,0,0,0,0,0,0,0,0,0,0,0,6.5564,6.5564,0,6.5541,6.5541,6.5541,6.5528,6.5527,6.5527,6.5527,6.5498,6.5497,6.5496,0,0,0,0,0,0,0,0,0,0,0,0,0,6.5593,6.5592,6.5564,6.5564,6.5564,6.5541,6.5541,6.5541,6.5528,6.5527,6.5527,6.5527,6.5498,6.5497,6.5496,0,0,0,0,0,0,0,0,0,0,0,0,0,6.5576,6.5592,6.5564,6.5555,6.5553,6.5541,6.5541,6.5541,6.5528,6.5527,6.5527,6.5527,6.5498,6.5497,6.5496,6.549,0,0,6.5493,6.5492,0,0,0,0,0,0,0,0,6.5577,6.5575,6.5556,6.5555,6.5554,6.5537,6.554,6.5524,6.5528,6.5537,6.5527,6.5527,6.5511,6.5509,6.5504,6.5489,6.5488,6.5493,6.5492,6.5491,6.5491,0,0,0,0,0,0,0,6.5578,6.5576,6.5555,6.5556,6.5555,6.555,6.5548,6.5537,6.5524,6.5536,6.5535,6.5533,6.551,6.5505,6.5503,6.5487,6.5493,6.5492,6.5491,6.5491,6.5469,6.5469,0,0,0,0,0,0,6.5581,6.5577,6.5556,6.5554,6.5566,6.555,6.5547,6.5543,6.5524,6.5522,6.5533,6.5533,6.5507,6.5505,6.5502,6.5496,6.5492,6.549,6.549,6.5469,6.5469,6.5469,0,0,0,0,0,0,6.5582,6.558,6.5557,6.5565,6.5562,6.5549,6.5544,6.5542,6.5538,6.5522,6.5519,6.5531,6.5507,6.5504,6.5494,6.5495,6.549,6.5489,6.5469,6.5469,6.5469,6.5482,0,0,0,0,0,0,6.5583,6.558,6.5578,6.5566,6.5562,6.555,6.5544,6.5542,6.5536,6.5535,6.5519,6.5516,6.5507,6.5496,6.5493,6.5493,6.5488,6.5468,6.5469,6.5469,6.5481,6.5483,6.5484,0,0,0,0,0,6.5584,6.5581,6.5578,6.5576,6.5559,6.555,6.5548,6.5538,6.5536,6.5534,6.5525,6.5517,6.5495,6.5495,6.5492,6.5491,6.5468,6.5469,6.5469,6.5481,6.5482,6.5484,0,0,0,0,0,0,6.559,6.5579,6.5576,6.5568,6.5561,6.5548,6.5545,6.554,6.5531,6.553,6.5517,6.5513,6.5506,6.5497,6.5498,6.5486,6.5481,6.5481,6.5492,6.5493,6.5494,6.5496,6.5487,0,0,0,0,0,6.5592,6.5587,6.5576,6.5571,6.5567,6.5557,6.5552,6.5547,6.5537,6.5533,6.5523,6.5512,6.5504,6.5498,6.5488,6.5481,6.5478,6.5479,6.548,6.5481,6.548,6.5478,6.5479,6.547,6.547,6.547,0,0,6.5593,6.5586,6.5583,6.5572,6.5565,6.556,6.5554,6.5547,6.5543,6.5531,6.5523,6.5515,6.5503,6.5495,6.5491,6.5488,6.5483,6.5481,6.5482,6.5481,6.5478,6.5479,6.548,6.547,6.547,6.547,0,0,6.5592,6.5586,6.5583,6.5577,6.5569,6.5562,6.5562,6.555,6.5546,6.5538,6.553,6.5524,6.5508,6.5501,6.5495,6.5496,6.5489,6.5493,6.5498,6.5496,6.5497,6.5497,6.5499,6.55,6.5493,6.5493,6.5493,0,6.5594,6.5587,6.558,6.5576,6.5572,6.5565,6.5561,6.5555,6.5542,6.5539,6.5537,6.552,6.5511,6.5502,6.5503,6.5498,6.5497,6.5494,6.5498,6.5498,6.5498,6.55,6.55,6.5494,6.5494,6.5494,6.5494,0,6.559,6.5586,6.5583,6.5576,6.5571,6.5567,6.5559,6.5555,6.5551,6.5545,6.5538,6.5528,6.5517,6.5515,6.5509,6.5506,6.5505,6.55,6.5495,6.55,6.5501,6.5502,6.5495,6.5494,6.5494,6.5494,0,0,6.559,6.5583,6.5582,6.5579,6.5571,6.5567,6.5563,6.5556,6.5553,6.5546,6.5542,6.5531,6.5528,6.5521,6.5515,6.5513,6.5517,6.5508,6.5508,6.5511,6.5515,6.5519,6.552,6.5513,6.5513,6.5513,6.5516,0,6.5589,6.5583,6.5579,6.5575,6.5571,6.5566,6.5562,6.5557,6.5552,6.5547,6.5541,6.5534,6.553,6.5526,6.5524,6.5517,6.5517,6.5516,6.5508,6.5508,6.5512,6.552,6.5523,6.5527,6.5517,6.5517,6.5517,0,6.5586,6.5583,6.5579,6.5574,6.5572,6.557,6.5565,6.556,6.5554,6.5551,6.5546,6.554,6.5536,6.5532,6.5526,6.5525,6.5522,6.5518,6.5518,6.5517,6.5513,6.5519,6.5528,6.5529,6.5517,6.5517,6.5517,0,6.5587,6.5582,6.558,6.5578,6.5572,6.557,6.5567,6.5562,6.5559,6.5554,6.5552,6.5546,6.5542,6.5537,6.553,6.5528,6.5525,6.552,6.5522,6.5522,6.552,6.5521,6.5529,6.5518,6.5518,6.5518,6.5518,0,6.5586,6.5584,6.5581,6.5579,6.5578,6.5573,6.5571,6.5567,6.5563,6.5561,6.5555,6.5552,6.5543,6.5539,6.5533,6.553,6.5528,6.5525,6.5523,6.5526,6.5526,6.5523,6.5522,6.5518,6.5518,6.5518,6.5518,0,6.5587,6.5585,6.5582,6.5579,6.5578,6.5577,6.5573,6.5572,6.5568,6.5565,6.5564,6.5558,6.5553,6.5546,6.5539,6.5535,6.5533,6.553,6.5536,6.5535,6.5537,6.5538,6.5544,6.5546,6.5534,6.5534,6.5534,0,6.5586,6.5585,6.5583,6.5583,6.5581,6.558,6.5578,6.5574,6.5572,6.5568,6.5567,6.5563,6.556,6.5553,6.5547,6.5542,6.5539,6.5542,6.5538,6.5541,6.554,6.554,6.5541,6.5542,6.5543,6.5543,6.5543,0,6.5586,6.5586,6.5585,6.5584,6.5584,6.5582,6.558,6.558,6.5575,6.5574,6.5571,6.5569,6.5564,6.556,6.5555,6.5551,6.5546,6.5545,6.5545,6.5547,6.5551,6.555,6.5539,6.5544,6.5544,6.5544,6.5544,6.5544,6.5586,6.5586,6.5586,6.5586,6.5585,6.5585,6.5584,6.5582,6.5581,6.5578,6.5576,6.5574,6.557,6.5563,6.556,6.5558,6.5556,6.5556,6.5556,6.5556,6.5557,6.5552,6.5557,6.5557,6.5557,6.5557,6.5557,0,6.5586,6.5587,6.5587,6.5587,6.5587,6.5586,6.5585,6.5585,6.5584,6.5582,6.5581,6.5579,6.5576,6.5572,6.5568,6.5568,6.5566,6.5567,6.5567,6.5567,6.5559,6.556,6.5569,6.5569,6.5569,6.5569,6.5569,6.5569,6.5586,6.5587,6.5587,6.5588,6.5589,6.5589,6.5589,6.5588,6.5588,6.5587,6.5586,6.5584,6.5581,6.5579,6.5577,6.5576,6.5575,6.5577,6.5575,6.5568,6.5567,6.5565,6.5566,6.5577,6.5577,6.5583,6.5583,6.5583]}]]